Weather History for Gillette, WY

Change the Weather History Date:

Sunday, April 7, 2013

  Actual Average Record
Temperature  
Mean Temperature 47 °F 40 °F  
Max Temperature 62 °F 53 °F 80 °F (1952)
Min Temperature 31 °F 27 °F 4 °F (1938)
Degree Days  
Heating Degree Days 18 25  
Month to date heating degree days 134 180  
Since 1 July heating degree days 6221 6527  
Cooling Degree Days 0 0  
Month to date cooling degree days 0 0  
Year to date cooling degree days 0 0  
Moisture  
Dew Point 34 °F    
Average Humidity 63    
Maximum Humidity 100    
Minimum Humidity 26    
Precipitation  
Precipitation 0.00 in 0.04 in 1.10 in (1975)
Month to date precipitation 0.11 0.19  
Year to date precipitation 1.52 1.93  
Sea Level Pressure  
Sea Level Pressure 29.64 in    
Wind  
Wind Speed 6 mph (NW)    
Max Wind Speed 29 mph    
Max Gust Speed 36 mph    
Visibility 10 miles    
Events      
T = Trace of Precipitation, MM = Missing Value Source: NWS Daily Summary

Daily Weather History Graph

Daily Weather History Graph

Search for Another Location

Airport:

Trip Planner

Search our weather history database for the weather conditions in past years. The results will help you decide how hot, cold, wet, or windy it might be!

Date:

Astronomy

Apr. 07, 2013 Rise Set
Actual Time 6:31 AM MDT 7:37 PM MDT
Civil Twilight 6:02 AM MDT 8:06 PM MDT
Nautical Twilight 5:26 AM MDT 8:42 PM MDT
Astronomical Twilight 4:49 AM MDT 9:20 PM MDT
Moon 4:56 AM MDT (4/7) 5:07 PM MDT (4/7)
Length of Visible Light 14h 04m
Length of Day
13h 05m
Waning Crescent, 8% of the Moon is Illuminated
Apr 7
Waning Crescent
Apr 10
New
Apr 18
First Quarter
Apr 25
Full
May 2
Last Quarter

Hourly Weather History & Observations

Time (MDT) Temp. Windchill Dew Point Humidity Pressure Visibility Wind Dir Wind Speed Gust Speed Precip Events Conditions
12:48 AM 46.4 °F 39.8 °F 37.4 °F 71% 29.79 in 10.0 mi NW 16.1 mph 24.2 mph N/A   Overcast
12:53 AM 46.0 °F 39.9 °F 37.0 °F 71% 29.75 in 10.0 mi NNW 13.8 mph - N/A   Overcast
1:53 AM 43.0 °F - 37.0 °F 80% 29.74 in 10.0 mi Calm Calm - N/A   Mostly Cloudy
2:53 AM 37.0 °F - 35.1 °F 93% 29.74 in 10.0 mi Calm Calm - N/A   Clear
3:53 AM 36.0 °F - 34.0 °F 93% 29.73 in 10.0 mi Calm Calm - N/A   Scattered Clouds
4:53 AM 33.1 °F 26.1 °F 32.0 °F 96% 29.74 in 10.0 mi South 8.1 mph - N/A   Scattered Clouds
5:53 AM 30.9 °F 26.2 °F 30.9 °F 100% 29.73 in 10.0 mi South 4.6 mph - N/A   Clear
6:53 AM 36.0 °F 33.3 °F 34.0 °F 93% 29.74 in 10.0 mi SSW 3.5 mph - N/A   Mostly Cloudy
7:53 AM 42.1 °F 36.6 °F 37.0 °F 82% 29.77 in 10.0 mi West 9.2 mph - N/A   Clear
8:53 AM 48.0 °F - 37.0 °F 66% 29.73 in 10.0 mi WNW 6.9 mph - N/A   Clear
9:53 AM 51.1 °F - 33.1 °F 50% 29.69 in 10.0 mi NNW 5.8 mph - N/A   Clear
10:53 AM 52.0 °F - 32.0 °F 47% 29.67 in 10.0 mi ENE 6.9 mph - N/A   Clear
11:53 AM 53.1 °F - 32.0 °F 45% 29.62 in 10.0 mi Calm Calm - N/A   Partly Cloudy
12:53 PM 55.0 °F - 32.0 °F 42% 29.60 in 10.0 mi SSW 8.1 mph 16.1 mph N/A   Mostly Cloudy
1:53 PM 57.9 °F - 30.0 °F 35% 29.56 in 10.0 mi WSW 12.7 mph 21.9 mph N/A   Mostly Cloudy
2:53 PM 59.0 °F - 25.0 °F 27% 29.54 in 10.0 mi SW 9.2 mph 17.3 mph N/A   Mostly Cloudy
3:53 PM 57.9 °F - 27.0 °F 31% 29.53 in 10.0 mi SW 9.2 mph - N/A   Overcast
4:17 PM 60.8 °F - 21.2 °F 22% 29.54 in 10.0 mi West 11.5 mph 23.0 mph N/A   Scattered Clouds
4:53 PM 57.0 °F - 35.1 °F 44% 29.53 in 10.0 mi North 18.4 mph - N/A   Clear
5:00 PM 55.4 °F - 35.6 °F 47% 29.55 in 10.0 mi North 15.0 mph - N/A   Clear
5:53 PM 54.0 °F - 36.0 °F 51% 29.55 in 10.0 mi NNE 10.4 mph - N/A   Clear
6:53 PM 50.0 °F - 37.9 °F 63% 29.56 in 10.0 mi NNE 10.4 mph - N/A   Partly Cloudy
7:53 PM 45.0 °F 40.6 °F 37.9 °F 76% 29.54 in 10.0 mi ENE 8.1 mph - N/A   Clear
8:53 PM 42.1 °F 37.7 °F 37.0 °F 82% 29.56 in 10.0 mi ENE 6.9 mph - N/A   Clear
9:53 PM 43.0 °F 40.3 °F 37.0 °F 80% 29.56 in 10.0 mi NNE 4.6 mph - N/A   Mostly Cloudy
10:53 PM 43.0 °F 41.3 °F 37.0 °F 80% 29.55 in 10.0 mi NNE 3.5 mph - N/A   Overcast
11:53 PM 39.9 °F - 36.0 °F 86% 29.55 in 10.0 mi Calm Calm - N/A   Clear